[[{"header":{"parameterUnit":"m.s-1","parameterCategory":1,"la1":30.2991,"la2":30.254,"lo1":-89.0895,"lo2":-89.0444,"dy":0.0017,"dx":0.0017,"nx":28,"ny":28,"refTime":"2024-06-10T21:00:00:Z","depth":0,"parameterNumber":2,"parameterNumberName":"U-component_of_WINDS"},"data":[0,0,0,0,0,0,0,0,0,0,0,0,0,0,0,0,0,0,0,0,0,0,0,0,0,0,0,0,0,0,0,0,0,0,0,0,0,0,0,0,0,0,0,0,0,0,0,0,0,0,0,0,0,0,0,0,0,0,-2.1098,-2.1097,0,-2.0988,-2.0987,-2.0985,-2.0861,-2.0859,-2.0858,-2.0856,-2.0745,-2.0744,-2.0743,0,0,0,0,0,0,0,0,0,0,0,0,0,-2.1208,-2.1206,-2.1099,-2.1097,-2.1096,-2.0988,-2.0987,-2.0985,-2.0862,-2.0859,-2.0857,-2.0855,-2.0746,-2.0744,-2.0743,0,0,0,0,0,0,0,0,0,0,0,0,0,-2.1135,-2.1206,-2.1099,-2.1021,-2.1013,-2.0988,-2.0987,-2.0985,-2.0862,-2.0859,-2.0857,-2.0854,-2.0746,-2.0744,-2.0742,-2.0786,0,0,-2.0737,-2.0736,0,0,0,0,0,0,0,0,-2.114,-2.1131,-2.1034,-2.1026,-2.1017,-2.0935,-2.0984,-2.0918,-2.0863,-2.092,-2.0856,-2.0853,-2.0811,-2.0804,-2.0789,-2.0781,-2.0776,-2.0737,-2.0735,-2.0735,-2.0734,0,0,0,0,0,0,0,-2.1145,-2.1135,-2.1055,-2.1033,-2.1023,-2.0994,-2.098,-2.0971,-2.0882,-2.0914,-2.0905,-2.0894,-2.0806,-2.0791,-2.0785,-2.0774,-2.0737,-2.0735,-2.0734,-2.0733,-2.0802,-2.0805,0,0,0,0,0,0,-2.1161,-2.114,-2.1058,-2.1051,-2.1073,-2.0994,-2.0979,-2.0965,-2.0882,-2.0866,-2.0896,-2.0888,-2.0796,-2.0788,-2.0781,-2.083,-2.0735,-2.0733,-2.0732,-2.0799,-2.0803,-2.0806,0,0,0,0,0,0,-2.1164,-2.1155,-2.1063,-2.1093,-2.1079,-2.0995,-2.098,-2.0964,-2.0949,-2.0868,-2.0852,-2.0897,-2.0793,-2.0784,-2.0787,-2.0824,-2.0732,-2.073,-2.0796,-2.08,-2.0804,-2.0926,0,0,0,0,0,0,-2.1167,-2.1156,-2.1171,-2.1095,-2.1078,-2.1069,-2.0982,-2.0964,-2.0946,-2.0934,-2.0864,-2.085,-2.079,-2.079,-2.0785,-2.082,-2.0729,-2.0792,-2.0798,-2.0803,-2.0918,-2.0934,-2.0948,0,0,0,0,0,-2.1172,-2.1209,-2.1172,-2.1163,-2.1094,-2.1071,-2.1062,-2.0991,-2.0949,-2.0964,-2.0913,-2.0853,-2.0821,-2.0791,-2.0784,-2.082,-2.0789,-2.0796,-2.0802,-2.0912,-2.0931,-2.0947,0,0,0,0,0,0,-2.1291,-2.1197,-2.1155,-2.1169,-2.1129,-2.105,-2.1066,-2.1013,-2.0985,-2.0976,-2.089,-2.0876,-2.089,-2.0854,-2.0824,-2.086,-2.0797,-2.0802,-2.0882,-2.09,-2.0914,-2.0923,-2.0727,0,0,0,0,0,-2.1319,-2.1307,-2.1226,-2.1246,-2.1228,-2.1152,-2.1139,-2.1088,-2.1044,-2.1026,-2.0975,-2.0936,-2.0917,-2.0906,-2.0884,-2.0913,-2.0898,-2.0934,-2.0949,-2.0961,-2.0967,-2.0984,-2.1,-2.0828,-2.0828,-2.0827,0,0,-2.1376,-2.1324,-2.1321,-2.1269,-2.1232,-2.1224,-2.1138,-2.1131,-2.1125,-2.1025,-2.1026,-2.0988,-2.0938,-2.0955,-2.096,-2.0926,-2.1012,-2.097,-2.098,-2.0979,-2.0993,-2.1009,-2.1024,-2.0832,-2.0831,-2.0831,0,0,-2.1477,-2.1435,-2.1448,-2.1414,-2.136,-2.1309,-2.1313,-2.1243,-2.1214,-2.1213,-2.114,-2.1132,-2.11,-2.1069,-2.105,-2.1144,-2.1089,-2.114,-2.1216,-2.1234,-2.1248,-2.1259,-2.1296,-2.131,-2.1146,-2.1146,-2.1146,0,-2.1555,-2.1538,-2.1462,-2.1462,-2.1443,-2.1353,-2.1368,-2.1338,-2.1281,-2.127,-2.1233,-2.1195,-2.1155,-2.1166,-2.119,-2.1175,-2.118,-2.1147,-2.1252,-2.1263,-2.1272,-2.1307,-2.1321,-2.1153,-2.1152,-2.1151,-2.1151,0,-2.1639,-2.163,-2.1647,-2.1595,-2.1577,-2.1585,-2.1512,-2.1504,-2.1456,-2.1411,-2.1414,-2.1363,-2.1331,-2.133,-2.1282,-2.1336,-2.1317,-2.1267,-2.1202,-2.1297,-2.1328,-2.134,-2.1162,-2.116,-2.1158,-2.1156,0,0,-2.181,-2.1718,-2.1726,-2.1703,-2.1638,-2.163,-2.1636,-2.1604,-2.1601,-2.1565,-2.157,-2.1547,-2.1502,-2.148,-2.1429,-2.1444,-2.1527,-2.1393,-2.139,-2.1422,-2.1587,-2.1627,-2.1643,-2.149,-2.1492,-2.1494,-2.1592,0,-2.1901,-2.1903,-2.1837,-2.1859,-2.1851,-2.1768,-2.1773,-2.1736,-2.1694,-2.1683,-2.1637,-2.1624,-2.1564,-2.1551,-2.1562,-2.1515,-2.156,-2.1506,-2.1496,-2.1497,-2.1513,-2.1658,-2.1698,-2.1793,-2.1603,-2.1605,-2.1607,0,-2.2006,-2.1978,-2.2,-2.1939,-2.1933,-2.1938,-2.1907,-2.1896,-2.1854,-2.1823,-2.1801,-2.1744,-2.1748,-2.1686,-2.1692,-2.1658,-2.165,-2.1627,-2.1629,-2.1626,-2.1558,-2.1662,-2.1821,-2.1837,-2.1624,-2.1623,-2.1622,0,-2.2133,-2.21,-2.2109,-2.2092,-2.202,-2.2026,-2.1997,-2.1952,-2.1939,-2.1913,-2.1904,-2.1879,-2.1865,-2.1848,-2.1786,-2.1746,-2.1801,-2.1733,-2.1778,-2.178,-2.1794,-2.1794,-2.1957,-2.1786,-2.1786,-2.1786,-2.1786,0,-2.2242,-2.2259,-2.2165,-2.2171,-2.219,-2.2115,-2.2135,-2.2098,-2.206,-2.2059,-2.1985,-2.1987,-2.1904,-2.1898,-2.185,-2.1865,-2.1858,-2.1836,-2.1823,-2.1843,-2.1847,-2.1838,-2.183,-2.1789,-2.1789,-2.1788,-2.1787,0,-2.2385,-2.2323,-2.2329,-2.2261,-2.2245,-2.2262,-2.2205,-2.221,-2.2165,-2.2166,-2.2161,-2.2092,-2.208,-2.2017,-2.1991,-2.1959,-2.1992,-2.1965,-2.2007,-2.1999,-2.2048,-2.2046,-2.2212,-2.2232,-2.2048,-2.2049,-2.2051,0,-2.246,-2.2471,-2.2407,-2.2401,-2.2375,-2.2367,-2.2354,-2.2282,-2.2272,-2.2228,-2.2239,-2.2222,-2.2204,-2.219,-2.2139,-2.212,-2.2093,-2.2153,-2.209,-2.2111,-2.2098,-2.2099,-2.2101,-2.2167,-2.217,-2.2171,-2.2173,0,-2.26,-2.257,-2.2554,-2.2529,-2.2516,-2.2493,-2.2465,-2.2465,-2.2386,-2.2379,-2.2367,-2.2354,-2.2329,-2.2314,-2.2287,-2.2258,-2.2205,-2.2194,-2.2204,-2.2225,-2.225,-2.224,-2.2046,-2.219,-2.2188,-2.2187,-2.2186,-2.2186,-2.2713,-2.2721,-2.2678,-2.2664,-2.2636,-2.2613,-2.2615,-2.2572,-2.256,-2.2534,-2.2493,-2.2488,-2.2449,-2.2407,-2.2384,-2.2381,-2.2349,-2.2362,-2.2366,-2.2371,-2.2383,-2.225,-2.2375,-2.2374,-2.2374,-2.2373,-2.2373,0,-2.2852,-2.2821,-2.2809,-2.2773,-2.2764,-2.2713,-2.2681,-2.2677,-2.2673,-2.2642,-2.2627,-2.2615,-2.2602,-2.2551,-2.2532,-2.254,-2.2515,-2.2538,-2.2538,-2.2533,-2.2411,-2.2405,-2.2559,-2.2559,-2.2559,-2.2559,-2.2559,-2.2559,-2.2923,-2.2935,-2.2901,-2.29,-2.2869,-2.2863,-2.285,-2.283,-2.2805,-2.2795,-2.2784,-2.275,-2.2712,-2.2691,-2.2678,-2.2664,-2.2662,-2.2694,-2.2672,-2.2559,-2.2541,-2.2524,-2.2518,-2.2693,-2.2693,-2.2794,-2.2795,-2.2796]},{"header":{"parameterUnit":"m.s-1","parameterCategory":1,"la1":30.2991,"la2":30.254,"lo1":-89.0895,"lo2":-89.0444,"dy":0.0017,"dx":0.0017,"nx":28,"ny":28,"refTime":"2024-06-10T21:00:00:Z","depth":0,"parameterNumber":3,"parameterNumberName":"V-component_of_WINDS"},"data":[0,0,0,0,0,0,0,0,0,0,0,0,0,0,0,0,0,0,0,0,0,0,0,0,0,0,0,0,0,0,0,0,0,0,0,0,0,0,0,0,0,0,0,0,0,0,0,0,0,0,0,0,0,0,0,0,0,0,1.4486,1.4487,0,1.4642,1.4644,1.4646,1.4697,1.4696,1.4696,1.4695,1.4855,1.486,1.4865,0,0,0,0,0,0,0,0,0,0,0,0,0,1.4227,1.4232,1.4485,1.4487,1.4489,1.4642,1.4644,1.4646,1.4697,1.4696,1.4695,1.4695,1.4854,1.4859,1.4865,0,0,0,0,0,0,0,0,0,0,0,0,0,1.4357,1.4233,1.4485,1.4533,1.4539,1.4641,1.4644,1.4647,1.4697,1.4696,1.4695,1.4694,1.4852,1.4859,1.4866,1.4932,0,0,1.4889,1.4892,0,0,0,0,0,0,0,0,1.435,1.4367,1.4524,1.453,1.4537,1.4649,1.4612,1.4742,1.4698,1.4637,1.4695,1.4694,1.4787,1.48,1.4832,1.494,1.4946,1.4889,1.4894,1.4897,1.4899,0,0,0,0,0,0,0,1.4341,1.436,1.4548,1.4526,1.4534,1.4546,1.4563,1.4637,1.4716,1.4642,1.4647,1.4664,1.4791,1.4824,1.4836,1.4949,1.4889,1.4896,1.49,1.4903,1.5113,1.5115,0,0,0,0,0,0,1.4324,1.4352,1.4543,1.4552,1.4439,1.4551,1.4571,1.4614,1.4716,1.473,1.4665,1.4666,1.4812,1.4827,1.4842,1.4923,1.4897,1.4904,1.4908,1.5112,1.5114,1.5115,0,0,0,0,0,0,1.4318,1.434,1.4536,1.4453,1.4479,1.4557,1.4605,1.4618,1.4652,1.4733,1.4747,1.4685,1.4812,1.4831,1.4908,1.4929,1.4907,1.4914,1.5111,1.5113,1.5114,1.5087,0,0,0,0,0,0,1.431,1.4338,1.4365,1.4454,1.4483,1.4601,1.4607,1.4621,1.4664,1.4667,1.4755,1.4769,1.4813,1.4897,1.4915,1.4939,1.4919,1.5109,1.5112,1.5114,1.5086,1.5087,1.5088,0,0,0,0,0,1.4301,1.4352,1.4366,1.4389,1.4519,1.4602,1.4619,1.4669,1.4666,1.4692,1.4744,1.4766,1.4923,1.4904,1.4926,1.4951,1.5108,1.5111,1.5114,1.5086,1.5087,1.5088,0,0,0,0,0,0,1.4265,1.4365,1.4382,1.4463,1.4523,1.4611,1.4647,1.467,1.4733,1.4733,1.4791,1.4811,1.4882,1.4925,1.4902,1.5018,1.5017,1.5024,1.4988,1.499,1.4991,1.4979,1.4926,0,0,0,0,0,1.4267,1.4326,1.441,1.4474,1.4503,1.4569,1.4608,1.464,1.4705,1.4731,1.4789,1.4851,1.4914,1.4954,1.5017,1.5092,1.511,1.512,1.5121,1.5121,1.5127,1.5165,1.517,1.5124,1.5124,1.5124,0,0,1.4271,1.4332,1.4367,1.4468,1.4519,1.4578,1.4591,1.4654,1.4698,1.4741,1.4817,1.486,1.4933,1.5008,1.5044,1.5045,1.5143,1.5125,1.5124,1.513,1.5169,1.5173,1.5177,1.5125,1.5125,1.5125,0,0,1.4308,1.4361,1.4418,1.4468,1.4544,1.4587,1.46,1.4683,1.4714,1.479,1.4822,1.4874,1.4983,1.5032,1.5072,1.5121,1.5143,1.514,1.5146,1.5183,1.5187,1.519,1.5206,1.5211,1.5145,1.5145,1.5145,0,1.4303,1.4395,1.4445,1.4505,1.4547,1.4587,1.4644,1.469,1.4782,1.481,1.481,1.4943,1.4996,1.5081,1.5092,1.5124,1.5139,1.5131,1.5182,1.5186,1.519,1.5206,1.5211,1.5144,1.5144,1.5144,1.5144,0,1.4383,1.4446,1.4482,1.4569,1.4615,1.4673,1.4731,1.4771,1.4798,1.484,1.4915,1.4978,1.5052,1.5075,1.5103,1.5163,1.5161,1.5171,1.5171,1.5193,1.5208,1.5214,1.5143,1.5143,1.5143,1.5143,0,0,1.4406,1.4516,1.4528,1.4566,1.4651,1.4699,1.4757,1.4829,1.4861,1.4923,1.4972,1.506,1.5068,1.5113,1.5146,1.5178,1.521,1.5184,1.5187,1.5185,1.5276,1.5268,1.5274,1.5224,1.5226,1.5227,1.527,0,1.4452,1.4558,1.4603,1.4688,1.4744,1.478,1.483,1.4887,1.4926,1.4979,1.5023,1.5083,1.5091,1.5117,1.5151,1.5199,1.5229,1.5197,1.5269,1.5271,1.5249,1.5283,1.5275,1.5313,1.5276,1.5277,1.5278,0,1.4522,1.4581,1.4671,1.4744,1.477,1.4814,1.4881,1.4932,1.4995,1.5021,1.5068,1.5099,1.5159,1.5153,1.5236,1.5212,1.5244,1.5271,1.5274,1.5283,1.5276,1.5291,1.5326,1.5331,1.5289,1.5288,1.5287,0,1.4525,1.4628,1.4694,1.4726,1.4814,1.4844,1.4882,1.4944,1.4983,1.5041,1.5066,1.5131,1.5166,1.5215,1.5261,1.5253,1.5337,1.5337,1.5359,1.5358,1.5376,1.5374,1.5416,1.5398,1.5397,1.5397,1.5397,0,1.4572,1.4625,1.4696,1.4737,1.4796,1.4846,1.4903,1.4944,1.4997,1.5045,1.5081,1.5125,1.5183,1.5234,1.527,1.5331,1.5347,1.5369,1.5378,1.5365,1.5362,1.5387,1.5385,1.5399,1.5399,1.5398,1.5398,0,1.4587,1.4637,1.4711,1.4787,1.4807,1.4847,1.4912,1.4952,1.4991,1.5051,1.5068,1.513,1.5191,1.5242,1.5323,1.5347,1.5409,1.542,1.5388,1.5393,1.5412,1.5408,1.547,1.548,1.5455,1.5455,1.5456,0,1.4613,1.4654,1.4734,1.4768,1.4805,1.486,1.4899,1.4948,1.4987,1.5059,1.5089,1.5152,1.5206,1.5301,1.5353,1.5414,1.5426,1.5443,1.5435,1.542,1.5424,1.5421,1.5424,1.5444,1.5444,1.5444,1.5444,0,1.4653,1.4675,1.473,1.4792,1.4837,1.4889,1.4941,1.4967,1.5025,1.5067,1.5129,1.517,1.5251,1.5312,1.5378,1.5416,1.5439,1.5445,1.5453,1.5441,1.542,1.543,1.5388,1.5444,1.5444,1.5444,1.5444,1.5444,1.4674,1.471,1.4771,1.483,1.4874,1.4921,1.4961,1.5004,1.5057,1.5126,1.5151,1.5214,1.5273,1.5363,1.54,1.5449,1.5452,1.5465,1.5468,1.547,1.5467,1.5412,1.5462,1.5462,1.5462,1.5462,1.5462,0,1.4714,1.4754,1.4807,1.4878,1.4923,1.494,1.4998,1.5035,1.5089,1.5142,1.5192,1.5262,1.5321,1.5376,1.5437,1.5465,1.5477,1.5479,1.5478,1.5485,1.5462,1.5448,1.5469,1.5469,1.5469,1.5469,1.5469,1.5469,1.474,1.4802,1.483,1.4913,1.4953,1.5015,1.5046,1.5088,1.513,1.5206,1.5255,1.529,1.5342,1.5407,1.5461,1.5475,1.5495,1.5495,1.5512,1.5489,1.5488,1.5486,1.5474,1.5499,1.5499,1.5531,1.5532,1.5532]}]]